Dewpoint
49 47 47 46 46 46 46 47 47 46 45 45 46 46 47 47 47 48 48 49 49 49 50 51 52 55 35 26 26 27 49 41 29 26 25 22 20 16 15 15 15 13 14 14 13 12 12
49 48 47 46 46 46 46 48 46 44 44 45 46 47 47 47 47 48 48 49 49 50 50 50 53 53 27 23 28 29 28 26 27 27 26 24 22 19 17 15 17 18 16 13 14 13 13
48 47 47 46 47 47 47 46 44 44 44 45 46 47 47 47 47 48 48 49 49 50 51 51 52 36 27 26 29 28 26 24 24 28 25 27 23 21 20 18 22 17 13 15 15 14 13
48 47 47 47 47 47 47 45 44 44 44 45 46 46 46 47 47 48 48 49 50 50 50 51 52 29 25 28 30 26 26 20 23 25 26 28 24 22 21 23 19 16 14 11 14 18 16
48 47 47 47 47 48 45 44 44 43 44 45 46 46 46 47 48 48 49 50 49 50 51 50 29 25 23 32 23 25 26 22 22 21 22 21 21 18 17 14 12 14 10 12 12 19 17
47 47 47 48 48 46 45 45 44 43 44 45 46 46 46 47 49 49 49 48 48 41 34 29 25 25 23 21 24 22 22 27 23 23 21 21 21 20 21 13 10 12 11 12 12 13 19
48 47 47 47 48 46 45 45 44 43 44 46 45 46 47 48 50 46 39 32 24 23 25 20 21 23 20 22 23 17 21 26 27 22 19 21 21 19 19 21 17 14 14 13 15 17 18
48 47 48 49 47 46 45 45 44 43 44 45 45 46 47 48 48 44 36 33 34 29 19 23 19 20 22 24 18 16 23 22 25 18 20 20 21 23 19 17 19 18 16 15 16 19 17
49 50 48 47 46 46 45 45 44 43 44 44 45 47 47 48 46 38 35 35 38 37 21 22 24 14 16 20 19 16 19 24 22 22 20 20 21 18 16 15 16 19 12 12 14 18 15
50 49 47 46 46 46 45 45 43 43 43 44 46 47 48 46 38 37 31 37 41 35 19 21 22 12 12 19 18 22 25 24 24 21 18 18 17 15 16 14 15 18 13 13 14 14 10
50 48 48 46 45 44 45 44 43 42 42 44 45 46 46 43 35 32 35 42 42 31 1 20 16 12 16 13 16 21 26 25 20 19 18 18 13 13 12 14 12 15 15 14 16 16 17
49 49 48 46 46 46 44 43 43 43 42 43 43 45 46 41 38 38 42 40 35 22 -3 18 13 14 14 15 15 22 24 27 25 19 18 19 21 16 15 15 14 16 18 16 20 20 14
49 48 48 46 45 44 43 43 43 42 42 43 44 47 44 42 32 41 41 34 23 11 15 14 12 15 16 15 17 20 21 21 17 7 16 12 15 16 18 12 12 16 17 3 3 6 7
48 48 48 46 44 44 43 42 43 43 43 43 43 43 44 43 42 42 36 28 3 13 17 15 10 15 15 16 17 22 22 20 20 18 16 11 5 14 15 13 11 13 19 4 -8 7 11
48 48 48 48 45 45 43 43 43 43 43 41 43 40 39 39 43 38 31 14 15 17 20 10 9 11 14 16 15 16 18 19 20 18 13 13 11 15 16 15 14 14 15 19 12 18 15
48 48 48 48 47 45 43 43 43 43 43 39 37 36 36 40 39 33 27 19 19 23 14 15 11 14 12 12 12 12 17 22 19 20 21 17 11 17 17 17 22 18 21 10 7 -5 -7
48 48 48 48 47 46 44 43 44 43 43 41 38 29 37 41 34 30 21 22 23 19 20 18 16 15 15 14 13 11 17 21 23 22 21 20 13 11 15 15 18 15 16 16 13 14 0
48 48 48 48 47 45 44 44 45 42 42 39 36 26 37 35 28 27 23 24 24 18 20 21 21 19 16 14 13 14 17 19 23 21 17 21 13 14 12 18 23 20 17 15 2 -4 11
48 49 48 47 47 46 46 46 44 42 42 37 32 30 35 32 22 24 26 23 22 18 19 21 19 19 19 15 13 17 17 21 19 19 20 21 12 1 -0 10 19 14 14 8 5 15 12
48 48 47 47 46 46 46 46 44 43 41 37 33 25 29 33 30 24 20 20 20 23 21 19 19 18 17 17 18 17 19 23 22 19 26 22 17 7 0 -2 8 3 7 6 8 2 8
48 48 47 47 46 47 46 45 44 43 42 36 30 25 28 25 28 25 22 23 20 19 20 20 17 17 17 17 17 17 19 20 21 26 22 20 10 13 12 13 14 14 14 15 10 13 11
47 47 47 47 47 46 46 46 45 44 42 34 32 31 29 27 31 27 28 22 21 21 19 18 17 19 19 20 19 19 20 18 17 19 18 20 9 17 15 15 15 14 14 15 17 16 16
47 47 47 47 46 46 46 46 45 43 40 37 36 34 31 28 28 27 26 25 24 23 25 21 21 21 20 19 21 21 22 22 21 18 17 18 17 14 7 15 16 9 15 14 17 20 22
47 47 47 46 46 45 46 46 44 43 40 36 35 32 30 24 28 28 26 25 25 22 20 22 22 20 22 24 23 21 20 22 23 21 21 20 17 12 6 14 -6 7 15 17 20 23 27
46 46 46 46 46 45 46 45 44 43 42 37 37 34 31 25 28 27 28 25 24 23 21 23 25 25 25 21 19 14 14 19 21 23 22 22 20 8 5 10 10 12 16 19 19 19 22
45 46 46 46 46 45 45 45 44 44 42 39 39 36 33 29 27 28 26 23 23 24 25 25 27 28 24 21 13 6 5 14 16 21 24 22 21 16 11 2 1 16 14 24 22 15 21
45 46 46 46 46 46 45 45 45 44 43 40 39 36 32 27 28 28 27 26 26 26 25 25 24 24 23 10 6 10 12 20 16 17 19 20 16 12 6 7 14 18 18 21 13 13 18
45 45 45 45 45 46 45 45 45 44 42 39 38 39 32 28 28 32 32 28 29 28 24 25 23 22 16 10 12 10 16 19 21 19 20 18 13 8 11 1 6 18 19 17 21 21 22
45 46 46 45 45 45 45 45 45 44 43 41 38 40 39 32 30 36 36 35 32 29 27 24 23 23 22 15 13 17 16 17 20 14 20 17 20 17 15 15 20 21 21 22 22 22 24
Lifted_Index
15 16 17 18 18 18 18 18 18 18 18 18 17 16 16 15 14 14 15 15 14 14 13 12 11 11 11 11 11 12 12 12 11 11 10 10 9 8 8 8 8 8 9 10 10 10 10
15 16 17 18 18 18 18 18 18 18 18 18 17 17 16 15 15 15 15 15 14 14 13 12 11 12 11 11 12 13 13 12 12 11 11 10 10 9 9 9 9 9 9 10 10 10 10
16 16 17 18 18 18 18 18 19 19 18 18 17 17 16 16 15 15 15 15 14 13 13 12 12 12 12 12 13 14 13 13 12 12 12 12 12 11 10 10 10 10 9 9 10 10 10
16 16 17 17 17 18 18 19 19 19 18 18 17 17 17 16 16 15 15 15 14 13 13 13 12 12 12 13 14 14 14 13 12 12 13 13 13 12 11 10 9 8 7 7 9 11 12
16 16 17 17 17 18 19 19 19 19 18 18 17 17 17 16 16 15 15 14 13 13 13 13 13 12 12 13 14 15 14 14 13 13 13 13 12 11 10 8 6 5 5 5 8 11 12
16 16 16 17 17 18 19 19 19 19 18 18 17 17 16 16 15 15 14 14 13 13 13 13 13 12 13 14 14 15 15 14 13 13 12 11 10 8 8 7 5 4 4 5 8 11 12
15 16 16 16 17 18 19 19 19 19 18 18 17 17 16 16 15 14 14 13 14 13 13 13 13 13 13 14 14 15 15 14 12 11 10 9 7 7 8 8 7 6 5 6 9 12 13
15 16 16 16 17 18 18 19 19 19 18 18 17 17 16 16 15 14 14 13 14 14 13 13 14 14 14 14 14 14 14 13 11 9 8 7 7 9 10 10 9 8 6 6 9 12 13
15 15 16 16 17 18 18 18 19 19 19 18 17 17 16 16 16 15 14 14 14 13 12 13 14 14 14 14 13 13 14 12 10 8 8 8 9 11 11 10 9 8 7 8 9 11 11
14 15 16 17 17 18 18 18 19 19 19 18 17 17 16 16 16 15 14 14 13 11 10 11 13 14 14 13 13 13 13 12 10 8 8 8 10 11 10 9 8 8 9 10 9 9 8
15 15 16 17 17 18 18 19 19 19 19 18 17 16 16 16 16 15 14 13 12 9 7 9 12 13 13 12 12 13 13 13 10 9 8 9 10 11 10 10 11 10 11 11 10 8 7
15 15 16 17 17 18 19 19 19 19 19 18 17 16 16 16 15 15 14 12 10 7 6 8 11 11 11 11 11 12 12 12 10 8 8 9 11 12 12 12 12 12 10 9 8 7 5
15 15 16 17 18 18 19 19 19 19 19 17 16 16 15 15 15 14 13 10 7 6 7 8 10 10 9 9 10 10 10 9 8 7 6 7 10 12 13 12 12 11 9 5 4 3 2
15 15 16 17 18 18 19 19 19 19 18 17 16 15 15 15 14 13 11 8 6 6 7 9 9 9 8 8 9 8 8 7 8 7 6 5 7 11 13 12 11 10 8 5 3 2 2
15 15 15 16 17 18 18 19 19 19 18 17 16 15 15 14 13 12 10 7 6 7 8 8 8 7 7 7 8 7 7 7 8 9 7 5 6 10 13 13 12 10 9 7 5 4 3
15 15 15 16 16 17 18 18 18 18 17 16 15 15 14 13 12 11 9 7 7 9 10 8 7 6 6 7 7 7 7 8 9 10 10 8 7 9 12 12 12 11 10 8 7 4 3
15 15 15 15 16 17 18 18 18 18 16 15 14 14 13 13 12 11 9 8 9 10 10 9 8 7 7 7 7 7 7 9 10 11 11 9 8 8 9 10 11 11 10 9 7 6 4
15 15 15 15 16 16 17 17 17 17 16 14 13 13 13 12 11 10 9 9 10 10 10 10 9 9 8 8 8 8 8 10 11 11 10 10 8 6 7 10 11 11 11 10 8 7 7
14 15 15 15 16 16 16 16 17 16 15 14 13 13 13 13 11 9 9 9 10 10 10 10 10 10 10 9 8 8 9 10 11 11 10 10 8 5 6 8 10 10 11 10 9 8 7
14 15 15 16 16 16 16 16 16 16 14 13 13 13 13 12 11 9 9 9 9 9 10 10 10 10 9 9 9 9 9 11 11 11 11 10 8 6 5 7 8 9 9 10 9 8 7
15 15 15 16 16 16 16 16 16 15 14 13 12 12 12 11 10 10 9 8 8 9 10 10 10 9 9 8 8 9 9 10 11 11 11 10 8 6 6 7 8 8 8 9 9 8 7
15 15 15 16 16 16 16 16 16 15 13 12 12 13 12 11 10 9 9 8 8 9 10 10 9 9 9 9 9 9 10 10 10 10 10 9 8 6 6 7 7 6 7 8 8 8 8
15 15 15 16 16 16 16 16 16 15 13 12 13 13 12 11 10 9 9 9 9 9 10 10 10 10 9 10 10 10 10 10 10 10 9 9 8 6 5 6 6 5 6 8 8 8 7
15 15 15 16 16 16 16 16 16 15 13 12 12 13 12 10 9 9 9 9 9 9 10 10 10 10 10 10 10 10 9 9 9 9 9 9 8 6 5 5 4 5 7 8 8 7 7
15 15 15 15 16 16 16 16 16 14 12 11 12 12 11 9 9 9 9 9 9 9 9 10 10 10 10 9 8 7 7 7 8 8 9 9 8 7 5 4 4 5 7 8 7 7 6
15 15 15 15 15 15 16 15 15 13 12 11 11 11 11 9 9 9 9 8 8 9 9 9 10 10 9 9 7 5 5 6 6 7 8 9 8 6 5 4 4 6 7 7 7 6 6
15 15 15 15 15 15 15 15 14 13 11 10 10 10 10 9 9 9 8 8 8 8 9 9 9 9 9 8 7 6 5 6 6 6 7 7 7 6 5 5 5 6 7 7 7 6 6
15 15 15 15 14 14 14 14 13 12 11 11 10 10 10 10 10 9 9 8 9 9 8 9 9 9 9 8 8 7 7 7 7 6 7 7 6 6 6 6 6 7 7 7 7 7 6
14 15 15 14 14 14 13 13 12 12 12 11 11 11 10 10 10 10 9 9 9 9 9 9 9 9 9 9 9 8 8 8 7 7 7 7 6 7 7 7 7 8 8 8 7 7 6